Weather History for Cozumel, Mexico

Change the Weather History Date:

Monday, October 8, 2012

  Actual Average Record
Temperature  
Mean Temperature 76 °F -  
Max Temperature 82 °F 87 °F 91 °F (1998)
Min Temperature 69 °F 76 °F 68 °F (2013)
Cooling Degree Days 10    
Growing Degree Days 26 (Base 50)    
Moisture  
Dew Point 73 °F    
Average Humidity 91    
Maximum Humidity 100    
Minimum Humidity 74    
Precipitation  
Precipitation 0.00 in - - ()
Sea Level Pressure  
Sea Level Pressure 29.93 in    
Wind  
Wind Speed 3 mph ()    
Max Wind Speed 9 mph    
Max Gust Speed -    
Visibility 6.8 miles    
Events      
Averages and records for this station are not official NWS values.
T = Trace of Precipitation, MM = Missing Value Source: Averaged Metar Reports

Daily Weather History Graph

Daily Weather History Graph

Search for Another Location

Airport:

Trip Planner

Search our weather history database for the weather conditions in past years. The results will help you decide how hot, cold, wet, or windy it might be!

Date:

Astronomy

Oct. 08, 2012 Rise Set
Actual Time 6:40 AM CDT 6:29 PM CDT
Civil Twilight 6:18 AM CDT 6:51 PM CDT
Nautical Twilight 5:52 AM CDT 7:16 PM CDT
Astronomical Twilight 5:27 AM CDT 7:42 PM CDT
Moon 12:09 AM CDT (10/8) 1:31 PM CDT (10/8)
Length of Visible Light 12h 32m
Length of Day
11h 48m
Last Quarter, 46% of the Moon is Illuminated
Oct 8
Last Quarter
Oct 15
New
Oct 21
First Quarter
Oct 29
Full
Nov 6
Last Quarter

Hourly Weather History & Observations

Time (CDT) Temp. Heat Index Dew Point Humidity Pressure Visibility Wind Dir Wind Speed Gust Speed Precip Events Conditions
12:48 AM 71.6 °F - 71.6 °F 100% 29.88 in 6.0 mi East 4.6 mph - N/A   Mostly Cloudy
1:44 AM 69.8 °F - 69.8 °F 100% 29.89 in 6.0 mi NE 4.6 mph - N/A   Mostly Cloudy
2:40 AM 71.6 °F - 71.6 °F 100% 29.88 in 6.0 mi Calm Calm - N/A   Mostly Cloudy
3:45 AM 69.8 °F - 69.8 °F 100% 29.90 in 6.0 mi Calm Calm - N/A   Mostly Cloudy
4:45 AM 71.6 °F - 71.6 °F 100% 29.89 in 7.0 mi Calm Calm - N/A   Mostly Cloudy
5:49 AM 71.6 °F - 71.6 °F 100% 29.91 in 6.0 mi Calm Calm - N/A   Mostly Cloudy
6:49 AM 73.4 °F - 73.4 °F 100% 29.91 in 6.0 mi Calm Calm - N/A   Mostly Cloudy
7:41 AM 73.4 °F - 73.4 °F 100% 29.94 in 7.0 mi NNE 4.6 mph - N/A   Mostly Cloudy
8:40 AM 75.2 °F - 75.2 °F 100% 29.96 in 7.0 mi North 3.5 mph - N/A   Mostly Cloudy
9:40 AM 78.8 °F - 75.2 °F 89% 29.99 in 7.0 mi North 4.6 mph - N/A   Mostly Cloudy
10:40 AM 78.8 °F - 75.2 °F 89% 29.98 in 7.0 mi NE 4.6 mph - N/A   Mostly Cloudy
11:43 AM 80.6 °F 85.4 °F 73.4 °F 79% 29.97 in 7.0 mi NE 9.2 mph - N/A   Mostly Cloudy
12:44 PM 80.6 °F 85.4 °F 73.4 °F 79% 29.92 in 7.0 mi NNE 4.6 mph - N/A   Mostly Cloudy
1:43 PM 82.4 °F 89.5 °F 75.2 °F 79% 29.92 in 7.0 mi ENE 6.9 mph - N/A   Mostly Cloudy
2:49 PM 82.4 °F 88.2 °F 73.4 °F 74% 29.89 in 7.0 mi ENE 3.5 mph - N/A   Mostly Cloudy
3:50 PM 80.6 °F 86.2 °F 75.2 °F 84% 29.91 in 7.0 mi ENE 4.6 mph - N/A   Mostly Cloudy
4:51 PM 80.6 °F 85.4 °F 73.4 °F 79% 29.89 in 7.0 mi East 9.2 mph - N/A   Mostly Cloudy
5:49 PM 78.8 °F - 75.2 °F 89% 29.90 in 7.0 mi East 6.9 mph - N/A   Mostly Cloudy
6:49 PM 77.0 °F - 71.6 °F 83% 29.88 in 7.0 mi Calm Calm - N/A   Mostly Cloudy
7:43 PM 75.2 °F - 73.4 °F 94% 29.94 in 7.0 mi Calm Calm - N/A   Mostly Cloudy
8:48 PM 73.4 °F - 71.6 °F 94% 29.96 in 7.0 mi Calm Calm - N/A   Mostly Cloudy
9:40 PM 73.4 °F - 71.6 °F 94% 30.01 in 7.0 mi Calm Calm - N/A   Mostly Cloudy
10:41 PM 71.6 °F - 69.8 °F 94% 30.00 in 7.0 mi Calm Calm - N/A   Mostly Cloudy
11:40 PM 71.6 °F - 69.8 °F 94% 29.99 in 7.0 mi Calm Calm - N/A   Mostly Cloudy